| time (UTC) | temp C | wind direction | speed KPH | gust KPH | rain 1hr cm | rain 24hr cm | rain mn cm | humidity % | barometer mb |
| 20260505061543 | 13 | 360 | 4.8 | 8.0 | 0.00 | 0.00 | 0.00 | 49 | 1016.0 |
| 20260505060039 | 14 | 360 | 0.0 | 1.6 | 0.00 | 0.00 | 0.00 | 46 | 1015.9 |
| 20260505054541 | 15 | 360 | 0.0 | 4.8 | 0.00 | 0.00 | 0.00 | 45 | 1015.9 |
| 20260505051538 | 15 | 360 | 0.0 | 3.2 | 0.00 | 0.00 | 0.00 | 44 | 1016.0 |
| 20260505041550 | 16 | 360 | 1.6 | 8.0 | 0.00 | 0.00 | 0.00 | 40 | 1016.0 |
| 20260505040048 | 16 | 360 | 1.6 | 6.4 | 0.00 | 0.00 | 0.00 | 39 | 1015.9 |
| 20260505034537 | 16 | 360 | 3.2 | 8.0 | 0.00 | 0.00 | 0.00 | 39 | 1016.1 |
| 20260505031542 | 16 | 360 | 1.6 | 4.8 | 0.00 | 0.00 | 0.00 | 40 | 1016.3 |
| 20260505030036 | 16 | 360 | 1.6 | 4.8 | 0.00 | 0.00 | 0.00 | 41 | 1016.2 |
| 20260505024543 | 16 | 360 | 0.0 | 6.4 | 0.00 | 0.00 | 0.00 | 40 | 1016.2 |
| 20260505021534 | 17 | 360 | 0.0 | 3.2 | 0.00 | 0.00 | 0.00 | 36 | 1016.1 |
| 20260505020030 | 18 | 360 | 0.0 | 4.8 | 0.00 | 0.00 | 0.00 | 35 | 1016.0 |
| 20260505014536 | 18 | 360 | 1.6 | 8.0 | 0.00 | 0.00 | 0.00 | 34 | 1015.7 |
| 20260505013028 | 18 | 360 | 3.2 | 9.7 | 0.00 | 0.00 | 0.00 | 33 | 1015.7 |
| 20260505011528 | 19 | 360 | 3.2 | 6.4 | 0.00 | 0.00 | 0.00 | 32 | 1015.6 |
| 20260505010027 | 19 | 360 | 3.2 | 8.0 | 0.00 | 0.00 | 0.00 | 30 | 1015.4 |
| 20260505004533 | 20 | 360 | 3.2 | 6.4 | 0.00 | 0.00 | 0.00 | 30 | 1015.2 |
| 20260505001528 | 20 | 360 | 3.2 | 8.0 | 0.00 | 0.00 | 0.00 | 27 | 1014.9 |
| 20260505000030 | 21 | 165 | 1.6 | 8.0 | 0.00 | 0.00 | 0.00 | 26 | 1015.0 |
| 20260504234525 | 21 | 180 | 4.8 | 9.7 | 0.00 | 0.00 | 0.00 | 25 | 1014.8 |
| 20260504231523 | 22 | 184 | 4.8 | 12.9 | 0.00 | 0.00 | 0.00 | 24 | 1014.5 |
| 20260504230023 | 22 | 231 | 4.8 | 11.3 | 0.00 | 0.00 | 0.00 | 23 | 1014.5 |
| 20260504224522 | 22 | 181 | 4.8 | 11.3 | 0.00 | 0.00 | 0.00 | 23 | 1014.6 |
| 20260504221523 | 22 | 360 | 6.4 | 12.9 | 0.00 | 0.00 | 0.00 | 23 | 1014.8 |
| 20260504220020 | 23 | 178 | 6.4 | 12.9 | 0.00 | 0.00 | 0.00 | 22 | 1014.7 |
| 20260504214524 | 23 | 195 | 8.0 | 17.7 | 0.00 | 0.00 | 0.00 | 23 | 1014.8 |
| 20260504211524 | 23 | 360 | 3.2 | 17.7 | 0.00 | 0.00 | 0.00 | 23 | 1014.7 |
| 20260504210018 | 23 | 210 | 3.2 | 14.5 | 0.00 | 0.00 | 0.00 | 23 | 1014.8 |
| 20260504204533 | 24 | 163 | 8.0 | 22.5 | 0.00 | 0.00 | 0.00 | 22 | 1014.8 |
| 20260504201517 | 24 | 172 | 6.4 | 16.1 | 0.00 | 0.00 | 0.00 | 19 | 1015.0 |
| 20260504200013 | 24 | 130 | 3.2 | 17.7 | 0.00 | 0.00 | 0.00 | 23 | 1015.2 |
| 20260504194511 | 24 | 161 | 8.0 | 14.5 | 0.00 | 0.00 | 0.00 | 19 | 1015.4 |
| 20260504191509 | 23 | 176 | 6.4 | 14.5 | 0.00 | 0.00 | 0.00 | 22 | 1015.9 |
| 20260504190006 | 23 | 183 | 6.4 | 14.5 | 0.00 | 0.00 | 0.00 | 22 | 1016.0 |
| 20260504184505 | 23 | 124 | 3.2 | 16.1 | 0.00 | 0.00 | 0.00 | 22 | 1016.3 |
| 20260504181506 | 22 | 178 | 4.8 | 14.5 | 0.00 | 0.00 | 0.00 | 24 | 1016.5 |
| 20260504180001 | 22 | 119 | 3.2 | 16.1 | 0.00 | 0.00 | 0.00 | 27 | 1016.4 |
| 20260504174503 | 22 | 44 | 3.2 | 14.5 | 0.00 | 0.00 | 0.00 | 23 | 1016.7 |
| 20260504171505 | 22 | 241 | 1.6 | 12.9 | 0.00 | 0.00 | 0.00 | 23 | 1017.0 |
| 20260504081542 | 6 | 360 | 0.0 | 3.2 | 0.00 | 0.00 | 0.00 | 64 | 1017.6 |